Dauntless Aviation
Greetings, Guest! To participate, [sign up for a free account] or [log in]
Airports Europe Germany
EDSW

Altdorf-Wallburg

Altdorf-Wallburg, GERMANY

Airport Info
Edit

Location

Latitude / Longitude: 48°16'11"N / 7°50'31"E
  48°16.188'N / 7°50.532'E
  48.2698 / 7.8422
Satellite photo at:
Airport distance calculator
From:
Weather Reports

METAR

LFST
18.2nm NW
LFST 261530Z AUTO 19006KT 150V220 9999 SCT058/// BKN076/// BKN094/// ///TCU 22/09 Q1004
EDSB
32.3nm N
EDSB 261520Z 33004KT 9999 SCT046 20/10 Q1005

TAF

LFST
18.2nm NW
TAF LFST 261100Z 2612/2712 17007KT 9999 SCT030 BKN060 TEMPO 2612/2706 5000 -SHRA SCT025TCU PROB40 TEMPO 2612/2620 16010G20KT 4000 SHRA BKN025 SCT035CB PROB30 TEMPO 2614/2619 14015G30KT 2000 TSRA BECMG 2706/2709 5000 -RA BKN030 BECMG 2709/2712 33010G20KT PROB40 TEMPO 2706/2712 BKN012 BKN020TCU
EDSB
32.3nm N
TAF EDSB 261100Z 2612/2712 23005KT 9999 SCT035 TEMPO 2612/2621 SHRA BKN020CB PROB30 TEMPO 2612/2620 22015G25KT 4000 TSRA BECMG 2618/2621 VRB03KT BECMG 2708/2710 29005KT TEMPO 2710/2712 SHRA BKN020CB
Safelog

 

Dauntless Aviation

© 2007-2015 Dauntless Aviation, all rights reserved
Information provided via PilotNav comes from a variety of official and unofficial data sources. As errors are possible, do not use PilotNav for primary flight planning purposes. Verify any information that you receive via PilotNav with current and canonical charts and other official documents. The material in this database is subject to database copyrights held by Dauntless Aviation and may not be copied without the express permission of Dauntless Aviation - licenses for use of part of all of this data are available for purchase; enquire via the Dauntless Aviation helpdesk. A number of mechanisms and markers exist in the database to protect against and identify infringement / copyright. Automated queries against this website are stictly prohibited, and all activity is logged and analyzed.